Hourly Data Report for February 27, 2019

TORONTO INTL A
ONTARIO
Current Station Operator: NAVCAN

43°40'36.000" N
79°37'50.000" W
173.40 m
6158731
71624
YYZ

Download Data

Hourly Data (February 2019)
Hourly Data Report for February 27, 2019
TIME
LST
Temp Definition
°C
Dew Point Definition
°C
Rel Hum Definition
%
Precip. Amount Definition
mm

Wind Dir Definition
10's deg

Wind Spd Definition
km/h
Visibility Definition
km
Stn Press Definition
kPa
Hmdx Definition


Wind Chill Definition


Weather Definition


00:00 -10.4 -16.8 60   1 12 24.1 101.15   -16 LegendNANA
01:00 -10.6 -16.9 60   2 12 24.1 101.15   -17 Cloudy
02:00 -10.7 -16.9 61   5 10 24.1 101.08   -16 LegendNANA
03:00 -11.2 -17.4 60   4 14 24.1 101.00   -18 LegendNANA
04:00 -11.2 -17.4 61   6 11 24.1 100.98   -17 Cloudy
05:00 -11.5 -18.6 56   8 13 24.1 100.90   -18 LegendNANA
06:00 -11.0 -18.0 57   6 15 9.7 100.85   -18 Snow
07:00 -11.1 -17.0 62   6 19 6.4 100.78   -19 Snow
08:00 -11.1 -16.3 66   6 16 2.0 100.71   -18 Snow
09:00 -10.9 -15.5 69   6 14 0.4 100.62   -18 Heavy Snow
10:00 -10.4 -14.6 71   6 14 1.2 100.41   -17 Snow
11:00 -9.2 -13.4 72   4 17 1.6 100.29   -16 Snow
12:00 -7.8 -11.6 75   10 18 1.6 100.09   -15 Snow
13:00 -7.7 -11.2 76   8 13 0.8 99.99   -13 Moderate Snow
14:00 -9.7 -12.9 77   5 23 1.2 99.86   -18 Snow
15:00 -10.0 -13.1 78   6 21 1.2 99.77   -18 Snow
16:00 -10.3 -13.3 78   5 22 1.2 99.72   -19 Snow
17:00 -10.9 -14.0 78   5 22 1.6 99.67   -19 Snow
18:00 -11.1 -14.3 77   4 25 8.1 99.66   -20 Snow
19:00 -11.3 -14.6 76   3 19 6.4 99.72   -19 Snow
20:00 -11.8 -15.2 76   2 23 8.1 99.75   -21 Snow
21:00 -12.3 -15.8 75   36 19 16.1 99.77   -21 Snow,Blowing Snow
22:00 -12.7 -16.3 75   36 18 8.1 99.81   -21 Snow
23:00 -12.8 -16.5 74   35 16 8.1 99.85   -20 Snow

Notes on Data Quality.

Legend

  • E = Estimated
  • M = Missing
  • NA = Not Available*
  • [empty] = Indicates an unobserved value
Date modified: